TOM126 GVAC-GLRB

Flight info

Callsign TOM126
Flight time 2h 17m
Altitude 33000
Route DISDA1A SNT UW31 MOGSA/N0473F350 UA602 TURED UG853 DEMAR TERPU1A
Aircraft B738/M-SDE2E3FGHIRWXY/LB1

Departure

Time 2026-04-27 08:25
Airport Amílcar Cabral International Airport (GVAC)

Arrival

Time 2026-04-27 10:43
Airport Roberts International Airport (GLRB)
Time Latitude Longitude Altitude Speed Heading
2026-04-27 08:07 16.73494 -22.94511 209 ft 0 kts 89°
2026-04-27 08:18 16.73494 -22.94526 209 ft 4 kts 89°
2026-04-27 08:18 16.73494 -22.94553 199 ft 2 kts 90°
2026-04-27 08:18 16.73496 -22.94577 204 ft 4 kts 114°
2026-04-27 08:19 16.73512 -22.94595 213 ft 4 kts 165°
2026-04-27 08:19 16.73537 -22.94598 213 ft 2 kts 179°
2026-04-27 08:19 16.73538 -22.94598 213 ft 1 kts 179°
2026-04-27 08:21 16.73537 -22.94598 213 ft 1 kts 179°
2026-04-27 08:21 16.73509 -22.94597 213 ft 8 kts 178°
2026-04-27 08:22 16.73424 -22.94595 205 ft 16 kts 179°
2026-04-27 08:22 16.73295 -22.94594 208 ft 19 kts 180°
2026-04-27 08:22 16.73163 -22.94594 208 ft 19 kts 180°
2026-04-27 08:22 16.73062 -22.94643 199 ft 16 kts 234°
2026-04-27 08:23 16.72969 -22.94691 200 ft 17 kts 182°
2026-04-27 08:23 16.72832 -22.94690 188 ft 20 kts 179°
2026-04-27 08:23 16.72694 -22.94688 185 ft 20 kts 179°
2026-04-27 08:23 16.72560 -22.94687 182 ft 19 kts 180°
2026-04-27 08:24 16.72435 -22.94695 182 ft 15 kts 207°
2026-04-27 08:24 16.72408 -22.94789 183 ft 14 kts 269°
2026-04-27 08:24 16.72414 -22.94881 185 ft 9 kts 309°
2026-04-27 08:24 16.72452 -22.94886 186 ft 6 kts 359°
2026-04-27 08:25 16.72596 -22.94887 186 ft 49 kts 359°
2026-04-27 08:25 16.73165 -22.94891 190 ft 113 kts 359°
2026-04-27 08:25 16.74128 -22.94908 264 ft 157 kts 360°
2026-04-27 08:25 16.75239 -22.94988 837 ft 164 kts 360°
2026-04-27 08:26 16.76383 -22.95013 1576 ft 166 kts
2026-04-27 08:26 16.77628 -22.94997 2031 ft 193 kts
2026-04-27 08:26 16.79067 -22.94991 2251 ft 218 kts
2026-04-27 08:26 16.80583 -22.94999 2797 ft 226 kts
2026-04-27 08:27 16.82200 -22.95015 3195 ft 241 kts
2026-04-27 08:27 16.83919 -22.94986 3756 ft 252 kts
2026-04-27 08:27 16.85504 -22.94243 4564 ft 257 kts 38°
2026-04-27 08:27 16.86649 -22.92761 5145 ft 274 kts 62°
2026-04-27 08:28 16.87172 -22.90800 5694 ft 289 kts 83°
2026-04-27 08:28 16.87230 -22.88685 6417 ft 295 kts 90°
2026-04-27 08:28 16.87200 -22.86504 7022 ft 304 kts 91°
2026-04-27 08:28 16.87102 -22.84298 7766 ft 306 kts 103°
2026-04-27 08:29 16.86206 -22.82317 8444 ft 303 kts 133°
2026-04-27 08:29 16.84829 -22.80657 9230 ft 304 kts 136°
2026-04-27 08:29 16.83407 -22.79010 9984 ft 307 kts 137°
2026-04-27 08:29 16.81960 -22.77333 10525 ft 318 kts 136°
2026-04-27 08:30 16.80429 -22.75545 10687 ft 342 kts 135°
2026-04-27 08:30 16.78800 -22.73621 10861 ft 364 kts 135°
2026-04-27 08:30 16.77090 -22.71575 11018 ft 384 kts 134°
2026-04-27 08:30 16.75319 -22.69435 11393 ft 394 kts 134°
2026-04-27 08:31 16.73527 -22.67255 11975 ft 397 kts 133°
2026-04-27 08:31 16.71731 -22.65059 12625 ft 399 kts 133°
2026-04-27 08:31 16.69926 -22.62851 13218 ft 402 kts 133°
2026-04-27 08:31 16.68104 -22.60621 13763 ft 406 kts 132°
2026-04-27 08:32 16.66261 -22.58368 14241 ft 410 kts 132°
2026-04-27 08:32 16.64404 -22.56099 14769 ft 412 kts 132°
2026-04-27 08:32 16.62538 -22.53818 15240 ft 416 kts 132°
2026-04-27 08:32 16.60653 -22.51517 15711 ft 418 kts 132°
2026-04-27 08:33 16.58759 -22.49206 16219 ft 420 kts 132°
2026-04-27 08:33 16.56855 -22.46883 16687 ft 423 kts 132°
2026-04-27 08:33 16.54930 -22.44536 17029 ft 429 kts 132°
2026-04-27 08:33 16.53013 -22.42199 17503 ft 430 kts 131°
2026-04-27 08:34 16.51066 -22.39827 17962 ft 433 kts 132°
2026-04-27 08:34 16.49093 -22.37424 18198 ft 440 kts 132°
2026-04-27 08:34 16.47099 -22.34996 18611 ft 441 kts 131°
2026-04-27 08:34 16.45110 -22.32575 19073 ft 440 kts 131°
2026-04-27 08:35 16.43118 -22.30150 19426 ft 443 kts 132°
2026-04-27 08:35 16.41104 -22.27701 19676 ft 447 kts 131°
2026-04-27 08:35 16.39080 -22.25240 20085 ft 448 kts 132°
2026-04-27 08:35 16.37707 -22.23570 20304 ft 450 kts 131°
2026-04-27 08:36 16.35669 -22.21093 20650 ft 452 kts 131°
2026-04-27 08:36 16.33617 -22.18601 20954 ft 455 kts 132°
2026-04-27 08:36 16.31550 -22.16091 21275 ft 457 kts 132°
2026-04-27 08:36 16.29475 -22.13572 21606 ft 460 kts 132°
2026-04-27 08:37 16.27389 -22.11040 21924 ft 462 kts 132°
2026-04-27 08:37 16.25293 -22.08498 22225 ft 464 kts 132°
2026-04-27 08:37 16.23212 -22.05974 22519 ft 467 kts 132°
2026-04-27 08:37 16.21090 -22.03402 22809 ft 469 kts 132°
2026-04-27 08:38 16.18956 -22.00817 23095 ft 472 kts 132°
2026-04-27 08:38 16.16817 -21.98225 23407 ft 473 kts 132°
2026-04-27 08:38 16.14667 -21.95622 23688 ft 476 kts 132°
2026-04-27 08:38 16.12504 -21.93003 23899 ft 478 kts 132°
2026-04-27 08:39 16.10332 -21.90375 24110 ft 481 kts 132°
2026-04-27 08:39 16.08145 -21.87730 24323 ft 483 kts 132°
2026-04-27 08:39 16.05951 -21.85077 24536 ft 485 kts 132°
2026-04-27 08:39 16.03743 -21.82408 24746 ft 488 kts 132°
2026-04-27 08:40 16.01525 -21.79728 24953 ft 490 kts 132°
2026-04-27 08:40 15.99298 -21.77039 25145 ft 493 kts 132°
2026-04-27 08:40 15.97058 -21.74334 25343 ft 495 kts 132°
2026-04-27 08:40 15.94807 -21.71618 25550 ft 497 kts 132°
2026-04-27 08:41 15.92547 -21.68890 25745 ft 499 kts 132°
2026-04-27 08:41 15.90279 -21.66156 25931 ft 501 kts 131°
2026-04-27 08:41 15.88004 -21.63413 26159 ft 502 kts 131°
2026-04-27 08:41 15.85722 -21.60663 26357 ft 504 kts 131°
2026-04-27 08:42 15.83430 -21.57902 26528 ft 506 kts 131°
2026-04-27 08:42 15.81125 -21.55126 26693 ft 508 kts 131°
2026-04-27 08:42 15.78815 -21.52346 26875 ft 510 kts 131°
2026-04-27 08:42 15.76492 -21.49550 27051 ft 512 kts 131°
2026-04-27 08:43 15.74163 -21.46749 27225 ft 514 kts 131°
2026-04-27 08:43 15.71823 -21.43936 27377 ft 516 kts 131°
2026-04-27 08:43 15.69475 -21.41114 27538 ft 518 kts 131°
2026-04-27 08:43 15.67117 -21.38282 27698 ft 519 kts 131°
2026-04-27 08:44 15.64751 -21.35440 27857 ft 521 kts 131°
2026-04-27 08:44 15.62408 -21.32628 28008 ft 523 kts 131°
2026-04-27 08:44 15.60030 -21.29774 28194 ft 523 kts 131°
2026-04-27 08:44 15.57655 -21.26925 28506 ft 521 kts 131°
2026-04-27 08:45 15.55287 -21.24085 28747 ft 521 kts 131°
2026-04-27 08:45 15.52916 -21.21243 28924 ft 522 kts 131°
2026-04-27 08:45 15.50535 -21.18390 29105 ft 523 kts 131°
2026-04-27 08:45 15.48153 -21.15538 29343 ft 523 kts 131°
2026-04-27 08:46 15.45771 -21.12686 29596 ft 523 kts 131°
2026-04-27 08:46 15.43391 -21.09837 29810 ft 523 kts 131°
2026-04-27 08:46 15.41006 -21.06984 30027 ft 524 kts 131°
2026-04-27 08:46 15.38617 -21.04127 30235 ft 524 kts 132°
2026-04-27 08:47 15.36233 -21.01277 30484 ft 523 kts 132°
2026-04-27 08:47 15.33923 -20.98517 30762 ft 521 kts 132°
2026-04-27 08:47 15.31551 -20.95684 31034 ft 519 kts 132°
2026-04-27 08:47 15.29199 -20.92874 31448 ft 514 kts 132°
2026-04-27 08:48 15.26866 -20.90089 31841 ft 510 kts 133°
2026-04-27 08:48 15.24548 -20.87323 32121 ft 508 kts 133°
2026-04-27 08:48 15.22228 -20.84557 32359 ft 508 kts 133°
2026-04-27 08:48 15.19914 -20.81797 32609 ft 507 kts 133°
2026-04-27 08:49 15.17602 -20.79042 32894 ft 506 kts 133°
2026-04-27 08:49 15.15296 -20.76295 33074 ft 506 kts 133°
2026-04-27 08:49 15.10663 -20.70780 33057 ft 507 kts 133°
2026-04-27 08:50 15.06053 -20.65293 33050 ft 504 kts 133°
2026-04-27 08:50 15.01462 -20.59833 33047 ft 502 kts 133°
2026-04-27 08:51 14.96906 -20.54419 33054 ft 500 kts 133°
2026-04-27 08:51 14.92342 -20.49001 33052 ft 499 kts 133°
2026-04-27 08:52 14.87784 -20.43592 33057 ft 499 kts 133°
2026-04-27 08:52 14.83224 -20.38185 33049 ft 499 kts 133°
2026-04-27 08:53 14.78651 -20.32766 33051 ft 501 kts 133°
2026-04-27 08:53 14.74065 -20.27333 33053 ft 502 kts 133°
2026-04-27 08:54 14.69468 -20.21893 33043 ft 503 kts 133°
2026-04-27 08:54 14.65055 -20.16327 33047 ft 505 kts 129°
2026-04-27 08:55 14.60775 -20.10564 33046 ft 506 kts 129°
2026-04-27 08:55 14.56493 -20.04790 33043 ft 506 kts 129°
2026-04-27 08:56 14.52240 -19.99118 33043 ft 506 kts 130°
2026-04-27 08:56 14.47909 -19.93380 33045 ft 506 kts 130°
2026-04-27 08:57 14.41417 -19.84791 33028 ft 506 kts 130°
2026-04-27 08:58 14.37096 -19.79077 33034 ft 505 kts 130°
2026-04-27 08:58 14.32781 -19.73372 33036 ft 504 kts 130°
2026-04-27 08:59 14.28469 -19.67676 33039 ft 503 kts 130°
2026-04-27 08:59 14.24159 -19.61987 33038 ft 503 kts 130°
2026-04-27 09:00 14.19852 -19.56305 33035 ft 503 kts 130°
2026-04-27 09:00 14.15544 -19.50626 33039 ft 503 kts 130°
2026-04-27 09:01 14.11236 -19.44951 33042 ft 503 kts 130°
2026-04-27 09:01 14.06926 -19.39278 33036 ft 503 kts 130°
2026-04-27 09:02 14.02618 -19.33610 33035 ft 503 kts 130°
2026-04-27 09:02 13.98317 -19.27955 33035 ft 503 kts 130°
2026-04-27 09:03 13.94035 -19.22330 33032 ft 503 kts 130°
2026-04-27 09:03 13.89721 -19.16667 33033 ft 502 kts 130°
2026-04-27 09:04 13.85407 -19.11007 33033 ft 502 kts 130°
2026-04-27 09:04 13.81092 -19.05349 33033 ft 503 kts 130°
2026-04-27 09:05 13.76829 -18.99764 33033 ft 503 kts 130°
2026-04-27 09:05 13.72509 -18.94108 33030 ft 503 kts 130°
2026-04-27 09:06 13.68186 -18.88451 33029 ft 503 kts 130°
2026-04-27 09:06 13.63862 -18.82796 33030 ft 503 kts 130°
2026-04-27 09:07 13.59535 -18.77142 33028 ft 503 kts 130°
2026-04-27 09:07 13.55206 -18.71488 33027 ft 503 kts 130°
2026-04-27 09:08 13.50875 -18.65835 33027 ft 503 kts 130°
2026-04-27 09:08 13.46541 -18.60183 33033 ft 505 kts 130°
2026-04-27 09:09 13.42173 -18.54490 33036 ft 509 kts 130°
2026-04-27 09:09 13.37773 -18.48757 33030 ft 512 kts 130°
2026-04-27 09:10 13.33356 -18.43005 33018 ft 513 kts 130°
2026-04-27 09:10 13.28915 -18.37258 33020 ft 514 kts 130°
2026-04-27 09:11 13.24495 -18.31562 33024 ft 513 kts 130°
2026-04-27 09:11 13.20050 -18.25831 33020 ft 513 kts 130°
2026-04-27 09:12 13.15612 -18.20108 33023 ft 512 kts 130°
2026-04-27 09:12 13.11189 -18.14407 33021 ft 510 kts 130°
2026-04-27 09:13 13.06769 -18.08714 33019 ft 510 kts 130°
2026-04-27 09:13 13.02353 -18.03029 33022 ft 509 kts 130°
2026-04-27 09:14 12.97755 -17.97700 33025 ft 505 kts 140°
2026-04-27 09:14 12.92493 -17.92932 33017 ft 505 kts 142°
2026-04-27 09:15 12.87196 -17.88213 33022 ft 505 kts 141°
2026-04-27 09:15 12.81941 -17.83445 33024 ft 504 kts 141°
2026-04-27 09:16 12.76713 -17.78653 33024 ft 504 kts 140°
2026-04-27 09:16 12.71487 -17.73857 33025 ft 504 kts 141°
2026-04-27 09:17 12.66263 -17.69070 33024 ft 504 kts 141°
2026-04-27 09:17 12.61033 -17.64285 33025 ft 504 kts 141°
2026-04-27 09:18 12.55809 -17.59508 33024 ft 504 kts 141°
2026-04-27 09:18 12.50580 -17.54728 33023 ft 503 kts 141°
2026-04-27 09:19 12.45360 -17.49959 33027 ft 503 kts 141°
2026-04-27 09:19 12.40136 -17.45189 33030 ft 503 kts 141°
2026-04-27 09:20 12.34917 -17.40426 33027 ft 503 kts 141°
2026-04-27 09:20 12.29732 -17.35696 33028 ft 503 kts 141°
2026-04-27 09:21 12.24513 -17.30944 33026 ft 502 kts 141°
2026-04-27 09:21 12.19294 -17.26196 33028 ft 502 kts 140°
2026-04-27 09:22 12.14084 -17.21458 33024 ft 501 kts 140°
2026-04-27 09:22 12.08879 -17.16725 33028 ft 501 kts 140°
2026-04-27 09:23 12.03678 -17.11998 33028 ft 500 kts 140°
2026-04-27 09:23 11.98482 -17.07278 33027 ft 500 kts 140°
2026-04-27 09:24 11.94125 -17.03323 33029 ft 500 kts 140°
2026-04-27 09:24 11.88988 -16.98661 33026 ft 500 kts 140°
2026-04-27 09:25 11.83830 -16.93983 33025 ft 499 kts 140°
2026-04-27 09:25 11.78642 -16.89280 33022 ft 499 kts 140°
2026-04-27 09:26 11.73452 -16.84578 33021 ft 498 kts 140°
2026-04-27 09:26 11.68267 -16.79882 33022 ft 498 kts 140°
2026-04-27 09:27 11.63082 -16.75189 33024 ft 498 kts 140°
2026-04-27 09:27 11.57895 -16.70497 33021 ft 498 kts 140°
2026-04-27 09:28 11.52708 -16.65808 33024 ft 498 kts 140°
2026-04-27 09:28 11.47532 -16.61130 33015 ft 497 kts 140°
2026-04-27 09:29 11.42364 -16.56462 33024 ft 496 kts 140°
2026-04-27 09:29 11.37200 -16.51800 33020 ft 496 kts 140°
2026-04-27 09:30 11.32037 -16.47142 33020 ft 495 kts 140°
2026-04-27 09:30 11.26878 -16.42489 33017 ft 495 kts 140°
2026-04-27 09:31 11.21717 -16.37838 33017 ft 495 kts 140°
2026-04-27 09:31 11.16593 -16.33220 33018 ft 494 kts 140°
2026-04-27 09:32 11.11446 -16.28585 33014 ft 494 kts 140°
2026-04-27 09:32 11.06305 -16.23959 33016 ft 493 kts 140°
2026-04-27 09:33 11.01165 -16.19335 33011 ft 493 kts 140°
2026-04-27 09:33 10.96037 -16.14723 33011 ft 493 kts 140°
2026-04-27 09:34 10.90901 -16.10108 33011 ft 493 kts 140°
2026-04-27 09:34 10.85766 -16.05494 33007 ft 492 kts 140°
2026-04-27 09:35 10.80635 -16.00888 33006 ft 492 kts 140°
2026-04-27 09:35 10.75586 -15.96356 33007 ft 491 kts 140°
2026-04-27 09:36 10.70457 -15.91755 33012 ft 491 kts 140°
2026-04-27 09:36 10.65334 -15.87161 33007 ft 491 kts 140°
2026-04-27 09:37 10.60208 -15.82567 33003 ft 491 kts 140°
2026-04-27 09:37 10.55083 -15.77976 33007 ft 491 kts 140°
2026-04-27 09:38 10.49955 -15.73384 33005 ft 491 kts 140°
2026-04-27 09:38 10.44827 -15.68794 33005 ft 491 kts 140°
2026-04-27 09:39 10.39698 -15.64204 33007 ft 491 kts 140°
2026-04-27 09:39 10.34567 -15.59614 33005 ft 492 kts 140°
2026-04-27 09:40 10.29481 -15.54968 33006 ft 492 kts 139°
2026-04-27 09:40 10.24419 -15.50287 33006 ft 492 kts 139°
2026-04-27 09:41 10.19357 -15.45613 33001 ft 492 kts 139°
2026-04-27 09:41 10.14286 -15.40946 33006 ft 492 kts 139°
2026-04-27 09:42 10.09214 -15.36285 33005 ft 492 kts 139°
2026-04-27 09:42 10.04175 -15.31657 33006 ft 492 kts 139°
2026-04-27 09:43 9.99112 -15.27008 33008 ft 492 kts 139°
2026-04-27 09:43 9.94038 -15.22351 33005 ft 492 kts 139°
2026-04-27 09:44 9.88963 -15.17694 33006 ft 492 kts 139°
2026-04-27 09:44 9.83888 -15.13040 33006 ft 492 kts 139°
2026-04-27 09:45 9.78819 -15.08393 33010 ft 491 kts 139°
2026-04-27 09:45 9.73747 -15.03745 33007 ft 491 kts 139°
2026-04-27 09:46 9.68746 -14.99165 33005 ft 491 kts 139°
2026-04-27 09:46 9.63675 -14.94522 33010 ft 491 kts 139°
2026-04-27 09:47 9.58605 -14.89882 33008 ft 491 kts 139°
2026-04-27 09:47 9.53533 -14.85242 33008 ft 491 kts 139°
2026-04-27 09:48 9.48463 -14.80605 33008 ft 491 kts 139°
2026-04-27 09:48 9.43390 -14.75968 33008 ft 491 kts 139°
2026-04-27 09:49 9.38322 -14.71337 33005 ft 491 kts 139°
2026-04-27 09:49 9.33240 -14.66713 33009 ft 491 kts 140°
2026-04-27 09:50 9.28083 -14.62177 33007 ft 491 kts 140°
2026-04-27 09:50 9.22911 -14.57669 33008 ft 491 kts 140°
2026-04-27 09:51 9.17744 -14.53150 33008 ft 491 kts 140°
2026-04-27 09:51 9.12584 -14.48624 33008 ft 491 kts 140°
2026-04-27 09:52 9.07425 -14.44097 33010 ft 491 kts 140°
2026-04-27 09:52 9.02260 -14.39567 33006 ft 491 kts 140°
2026-04-27 09:53 8.97140 -14.35078 33009 ft 491 kts 140°
2026-04-27 09:53 8.91978 -14.30555 33005 ft 491 kts 140°
2026-04-27 09:54 8.86812 -14.26030 33006 ft 491 kts 140°
2026-04-27 09:54 8.81650 -14.21511 33005 ft 491 kts 140°
2026-04-27 09:55 8.76489 -14.16994 33004 ft 491 kts 140°
2026-04-27 09:55 8.68748 -14.10222 33005 ft 490 kts 140°
2026-04-27 09:56 8.63592 -14.05713 33005 ft 490 kts 140°
2026-04-27 09:56 8.58436 -14.01206 33006 ft 490 kts 140°
2026-04-27 09:57 8.53348 -13.96760 33004 ft 490 kts 140°
2026-04-27 09:57 8.48192 -13.92257 33001 ft 490 kts 140°
2026-04-27 09:58 8.43034 -13.87754 33000 ft 490 kts 140°
2026-04-27 09:58 8.37873 -13.83249 33004 ft 490 kts 139°
2026-04-27 09:59 8.32712 -13.78745 33002 ft 490 kts 139°
2026-04-27 09:59 8.27548 -13.74242 32999 ft 491 kts 139°
2026-04-27 10:00 8.22380 -13.69735 33001 ft 491 kts 139°
2026-04-27 10:00 8.17212 -13.65230 33002 ft 491 kts 139°
2026-04-27 10:01 8.12218 -13.60538 33005 ft 491 kts 134°
2026-04-27 10:01 8.07542 -13.55575 33002 ft 491 kts 133°
2026-04-27 10:02 8.02872 -13.50556 32994 ft 491 kts 133°
2026-04-27 10:02 7.98185 -13.45571 32990 ft 491 kts 134°
2026-04-27 10:03 7.93470 -13.40596 32993 ft 491 kts 134°
2026-04-27 10:03 7.88741 -13.35618 32996 ft 492 kts 134°
2026-04-27 10:04 7.84011 -13.30639 32996 ft 491 kts 134°
2026-04-27 10:04 7.79278 -13.25657 33000 ft 491 kts 134°
2026-04-27 10:05 7.74556 -13.20687 32993 ft 490 kts 134°
2026-04-27 10:05 7.69845 -13.15731 32992 ft 489 kts 134°
2026-04-27 10:06 7.65143 -13.10786 32989 ft 488 kts 134°
2026-04-27 10:06 7.60439 -13.05840 32993 ft 489 kts 134°
2026-04-27 10:07 7.55737 -13.00898 32989 ft 489 kts 134°
2026-04-27 10:07 7.51093 -12.96018 32995 ft 488 kts 134°
2026-04-27 10:08 7.46425 -12.91115 32985 ft 488 kts 134°
2026-04-27 10:08 7.41724 -12.86180 32996 ft 488 kts 134°
2026-04-27 10:09 7.37023 -12.81246 32993 ft 488 kts 134°
2026-04-27 10:09 7.32328 -12.76320 32992 ft 487 kts 134°
2026-04-27 10:10 7.27639 -12.71401 32990 ft 487 kts 134°
2026-04-27 10:10 7.22949 -12.66483 32990 ft 487 kts 134°
2026-04-27 10:11 7.18262 -12.61570 32988 ft 487 kts 134°
2026-04-27 10:11 7.13572 -12.56656 32990 ft 487 kts 134°
2026-04-27 10:12 7.09669 -12.52567 32986 ft 487 kts 134°
2026-04-27 10:12 7.04973 -12.47648 32992 ft 487 kts 134°
2026-04-27 10:13 7.00277 -12.42731 32989 ft 487 kts 134°
2026-04-27 10:13 6.95586 -12.37821 32989 ft 487 kts 134°
2026-04-27 10:14 6.90883 -12.32900 32990 ft 488 kts 134°
2026-04-27 10:14 6.86174 -12.27974 32993 ft 489 kts 134°
2026-04-27 10:15 6.81459 -12.23044 32990 ft 489 kts 134°
2026-04-27 10:15 6.76734 -12.18105 32999 ft 489 kts 134°
2026-04-27 10:16 6.72010 -12.13167 32988 ft 490 kts 134°
2026-04-27 10:16 6.67289 -12.08236 32989 ft 489 kts 134°
2026-04-27 10:17 6.62578 -12.03315 32988 ft 488 kts 133°
2026-04-27 10:17 6.57935 -11.98467 32986 ft 488 kts 133°
2026-04-27 10:18 6.53220 -11.93545 32993 ft 489 kts 133°
2026-04-27 10:18 6.48503 -11.88622 32989 ft 489 kts 133°
2026-04-27 10:19 6.43786 -11.83701 32990 ft 489 kts 133°
2026-04-27 10:19 6.39071 -11.78784 32989 ft 488 kts 134°
2026-04-27 10:20 6.34354 -11.73866 32973 ft 488 kts 134°
2026-04-27 10:20 6.32001 -11.71412 32394 ft 488 kts 134°
2026-04-27 10:20 6.29635 -11.68947 31432 ft 491 kts 133°
2026-04-27 10:21 6.27263 -11.66474 30649 ft 491 kts 133°
2026-04-27 10:21 6.24900 -11.64012 29978 ft 488 kts 134°
2026-04-27 10:21 6.22545 -11.61559 29052 ft 488 kts 134°
2026-04-27 10:21 6.20216 -11.59132 28145 ft 488 kts 134°
2026-04-27 10:22 6.17859 -11.56676 27200 ft 488 kts 134°
2026-04-27 10:22 6.15501 -11.54222 26497 ft 485 kts 134°
2026-04-27 10:22 6.13174 -11.51798 25841 ft 479 kts 134°
2026-04-27 10:22 6.10869 -11.49398 25174 ft 475 kts 134°
2026-04-27 10:23 6.08588 -11.47023 24513 ft 471 kts 134°
2026-04-27 10:23 6.06321 -11.44663 23853 ft 467 kts 134°
2026-04-27 10:23 6.04072 -11.42323 23125 ft 464 kts 134°
2026-04-27 10:23 6.01843 -11.40003 22424 ft 459 kts 134°
2026-04-27 10:24 5.99645 -11.37717 21761 ft 453 kts 134°
2026-04-27 10:24 5.97472 -11.35456 21121 ft 448 kts 134°
2026-04-27 10:24 5.95322 -11.33221 20495 ft 442 kts 134°
2026-04-27 10:24 5.93196 -11.31009 19880 ft 438 kts 134°
2026-04-27 10:25 5.91090 -11.28819 19249 ft 434 kts 133°
2026-04-27 10:25 5.89002 -11.26648 18622 ft 430 kts 133°
2026-04-27 10:25 5.86929 -11.24492 17959 ft 427 kts 133°
2026-04-27 10:25 5.84877 -11.22359 17329 ft 422 kts 133°
2026-04-27 10:26 5.82855 -11.20257 16849 ft 414 kts 133°
2026-04-27 10:26 5.80869 -11.18193 16299 ft 408 kts 133°
2026-04-27 10:26 5.78906 -11.16152 15692 ft 405 kts 133°
2026-04-27 10:26 5.76959 -11.14127 15096 ft 401 kts 133°
2026-04-27 10:27 5.75030 -11.12122 14538 ft 397 kts 132°
2026-04-27 10:27 5.73119 -11.10137 14003 ft 393 kts 132°
2026-04-27 10:27 5.71225 -11.08169 13433 ft 390 kts 132°
2026-04-27 10:27 5.69377 -11.06199 12811 ft 385 kts 127°
2026-04-27 10:28 5.68104 -11.03874 12233 ft 379 kts 106°
2026-04-27 10:28 5.67737 -11.01314 12058 ft 364 kts 89°
2026-04-27 10:28 5.68035 -10.98910 11857 ft 353 kts 76°
2026-04-27 10:28 5.68877 -10.96656 11753 ft 340 kts 62°
2026-04-27 10:29 5.70173 -10.94717 11626 ft 330 kts 55°
2026-04-27 10:29 5.71540 -10.92913 11490 ft 319 kts 53°
2026-04-27 10:29 5.72881 -10.91188 11414 ft 308 kts 53°
2026-04-27 10:29 5.74175 -10.89525 11337 ft 297 kts 54°
2026-04-27 10:30 5.75422 -10.87913 11231 ft 288 kts 54°
2026-04-27 10:30 5.76630 -10.86341 11111 ft 280 kts 54°
2026-04-27 10:30 5.77806 -10.84805 10997 ft 276 kts 54°
2026-04-27 10:30 5.78967 -10.83281 10761 ft 274 kts 54°
2026-04-27 10:31 5.80116 -10.81771 10369 ft 271 kts 54°
2026-04-27 10:31 5.81262 -10.80262 9898 ft 272 kts 54°
2026-04-27 10:31 5.82410 -10.78749 9431 ft 271 kts 54°
2026-04-27 10:31 5.83549 -10.77248 8996 ft 269 kts 54°
2026-04-27 10:32 5.84679 -10.75758 8551 ft 268 kts 54°
2026-04-27 10:32 5.85789 -10.74294 8121 ft 266 kts 54°
2026-04-27 10:32 5.86907 -10.72819 7691 ft 265 kts 54°
2026-04-27 10:32 5.88018 -10.71353 7274 ft 263 kts 54°
2026-04-27 10:33 5.89118 -10.69901 6944 ft 259 kts 54°
2026-04-27 10:33 5.90208 -10.68463 6664 ft 252 kts 54°
2026-04-27 10:33 5.91265 -10.67068 6411 ft 251 kts 54°
2026-04-27 10:33 5.92295 -10.65709 6301 ft 241 kts 54°
2026-04-27 10:34 5.93292 -10.64394 6205 ft 226 kts 54°
2026-04-27 10:34 5.94193 -10.63206 6076 ft 209 kts 54°
2026-04-27 10:34 5.95058 -10.62063 5644 ft 209 kts 54°
2026-04-27 10:34 5.95937 -10.60901 5294 ft 209 kts 54°
2026-04-27 10:35 5.96805 -10.59754 5019 ft 202 kts 53°
2026-04-27 10:35 5.97640 -10.58651 4800 ft 195 kts 53°
2026-04-27 10:35 5.98452 -10.57579 4592 ft 191 kts 54°
2026-04-27 10:35 5.99250 -10.56524 4370 ft 187 kts 53°
2026-04-27 10:36 6.00032 -10.55491 4179 ft 184 kts 53°
2026-04-27 10:36 6.00803 -10.54471 4001 ft 182 kts 53°
2026-04-27 10:36 6.01562 -10.53469 3817 ft 179 kts 53°
2026-04-27 10:36 6.02304 -10.52488 3739 ft 176 kts 53°
2026-04-27 10:37 6.03053 -10.51498 3656 ft 180 kts 53°
2026-04-27 10:37 6.03820 -10.50485 3594 ft 184 kts 52°
2026-04-27 10:37 6.04599 -10.49455 3505 ft 186 kts 53°
2026-04-27 10:37 6.05378 -10.48426 3414 ft 184 kts 52°
2026-04-27 10:38 6.06149 -10.47408 3334 ft 182 kts 52°
2026-04-27 10:38 6.06917 -10.46393 3201 ft 184 kts 52°
2026-04-27 10:38 6.07878 -10.45544 3016 ft 185 kts 28°
2026-04-27 10:38 6.08991 -10.44937 2889 ft 180 kts 30°
2026-04-27 10:39 6.10073 -10.44287 2667 ft 181 kts 31°
2026-04-27 10:39 6.11147 -10.43634 2435 ft 180 kts 30°
2026-04-27 10:39 6.12205 -10.42992 2228 ft 175 kts 30°
2026-04-27 10:39 6.13246 -10.42363 2015 ft 175 kts 31°
2026-04-27 10:40 6.14302 -10.41723 1779 ft 176 kts 30°
2026-04-27 10:40 6.15330 -10.41101 1520 ft 168 kts 29°
2026-04-27 10:40 6.16289 -10.40523 1363 ft 157 kts 29°
2026-04-27 10:40 6.17219 -10.39957 1147 ft 159 kts 30°
2026-04-27 10:41 6.18149 -10.39394 950 ft 154 kts 29°
2026-04-27 10:41 6.19090 -10.38826 745 ft 154 kts 27°
2026-04-27 10:41 6.19983 -10.38284 563 ft 151 kts 28°
2026-04-27 10:41 6.20895 -10.37732 360 ft 154 kts 27°
2026-04-27 10:42 6.21817 -10.37176 125 ft 154 kts 28°
2026-04-27 10:42 6.22708 -10.36641 39 ft 139 kts 32°
2026-04-27 10:42 6.23409 -10.36217 32 ft 96 kts 31°
2026-04-27 10:42 6.23855 -10.35950 34 ft 53 kts 31°
2026-04-27 10:43 6.24014 -10.35848 37 ft 13 kts 49°
2026-04-27 10:43 6.24000 -10.35767 35 ft 13 kts 123°
2026-04-27 10:43 6.23954 -10.35691 35 ft 13 kts 121°
2026-04-27 10:43 6.23961 -10.35621 33 ft 8 kts 40°
2026-04-27 10:44 6.24010 -10.35590 34 ft 8 kts 31°
2026-04-27 10:44 6.24058 -10.35560 33 ft 8 kts 32°
2026-04-27 10:44 6.24055 -10.35509 33 ft 9 kts 123°
2026-04-27 10:44 6.24020 -10.35459 33 ft 9 kts 123°
2026-04-27 10:45 6.24016 -10.35453 32 ft 0 kts 124°